Weather in Un"ugan

Russia / Khanty-Mansi Autonomous Okrug — Yugra     61°56′51″N   64°55′57″E
temp.,
°C
wind,
m/s
gust,
m/s
humid.,
%
clouds,
%
prec.,
mm/h
press.,
hPa
HPBL,
m
4 july, mon
mon423:00+9nne476897 0.1 1014960
02:00+8nne3873100 0.0 1014742
05:00+8nne4874100 0.0 1014652
08:00+11nne475732 0.0 10151281
11:00+11nne5653100 0.0 10151578
14:00+13ne464370 0.0 10141719
17:00+15ne4539100 0.0 10141793
20:00+14ne254793 0.0 10131227
5 july, tue
tue523:00+9ne1165100 0.0 101410
02:00+8ne1171100 0.0 101410
05:00+9nnw1167100 0.0 101314
08:00+14nnw1247100 0.0 1013509
11:00+14nnw2250100 0.0 1012141
14:00+19se1235100 0.0 1011872
17:00+15ese2353100 0.1 101158
20:00+12s2673100 0.1 1010159
6 july, wed
wed623:00+12ssw2775100 0.1 1010212
02:00+11ssw268193 0.0 1010191
05:00+11ssw2383100 0.1 1011121
08:00+16ssw235936 0.0 1011373
11:00+22s114888 0.0 1011952
14:00+22se324722 0.0 1011971
17:00+24ssw224659 0.0 10111238
20:00+22s235776 0.0 101181
7 july, thu
thu723:00+18s277098 0.0 1012163
02:00+17ssw2674100 0.0 1013139
05:00+16ssw2675100 0.0 1014152
08:00+19ssw256785 0.0 1015238
11:00+25sw33454 0.0 10151167
14:00+28ssw223478 0.0 10142534
17:00+24ssw2450100 0.0 1014151
20:00+23ssw38512 0.0 1014398
8 july, fri
fri823:00+17ssw38720 0.0 1014135
02:00+16ssw36780 0.0 1014101
05:00+17ssw27770 0.0 1014152
08:00+23ssw47480 0.0 1013522
11:00+27ssw45360 0.0 10121375
14:00+30sw45349 0.0 10102593
17:00+30sw453340 0.0 10092466
20:00+26sw385059 0.0 1009474